Погода в Гиагинской

Россия / Республика Адыгея     44°52′34″N   40°03′34″E
темп.,
°C
ветер,
м/с
пор.,
м/с
влажн.,
%
обл.,
%
осадки,
мм/ч
давл.,
гПа
погр.,
м
7 мая, пт
пт700:00+13зюз3486100 0.0 101372
03:00+10з35776 0.0 101475
06:00+9зюз34775 0.0 101564
09:00+15зюз48620 0.0 1017527
12:00+19зсз67555 0.0 10171134
15:00+21зсз57555 0.0 10171417
18:00+19з35725 0.0 1017222
21:00+13ююз127487 0.0 101811
8 мая, сб
сб800:00+12вюв12815 0.0 101711
03:00+11юв339175 0.0 101636
06:00+12ююв229030 0.0 101644
09:00+18юв1273100 0.0 1015381
12:00+22в2263100 0.0 1013759
15:00+22юз0156100 0.0 1012960
18:00+22юв126975 0.0 101126
21:00+17вюв23765 0.0 101024
9 мая, вс
вс900:00+14юз3389100 0.4 101032
03:00+13з51078100 0.4 1010288
06:00+12зсз41197100 1.5 1011524
09:00+9зсз81396100 4.8 1014883
12:00+9зсз61094100 4.8 1018795
15:00+10сз478378 6.1 1020956
18:00+10зсз698493 0.8 1022632
21:00+7зюз479347 1.2 1024154
10 мая, пн
пн1000:00+6юз499470 0.1 1024164
03:00+5зюз4794100 0.4 1024173
06:00+6зюз359488 0.1 1024155
09:00+11з6775100 0.9 1023918
12:00+12з81061100 0.4 10221779
15:00+11зсз71072100 1.6 10211235
18:00+8з8127993 0.2 1021887
21:00+7зюз81385100 0.6 10191199
11 мая, вт
вт1100:00+7юз91692100 2.1 10181142
03:00+7юз111791100 4.6 1017912
06:00+7юз111992100 3.8 1016915
09:00+8юз122091100 5.5 1015999
12:00+8зюз122091100 3.3 1014957
15:00+9зюз101889100 6.1 1015961
18:00+9з7119581 2.9 1017494
21:00+9зюз51095100 3.1 1017365